RCH3314 ETAR-ENOL

Flight info

Callsign RCH3314
Flight time 2h 33m
Altitude 29000
Route RUDOT Q760 NVO DCT BASUM M170 ELSOB N125 EKERN M852 ALS P615 NEDZA P601 PIVAT DCT OSKOK DCT NELSU
Aircraft C17/H-SDE1E2FGHIJ5RTUWXY/LB1D1

Departure

Time 2026-04-22 11:26
Airport Ramstein Air Base (ETAR)

Arrival

Time 2026-04-22 13:59
Airport Ørland Airport (ENOL)
Time Latitude Longitude Altitude Speed Heading
2026-04-22 11:11 49.43981 7.58840 768 ft 0 kts 266°
2026-04-22 11:15 49.43981 7.58841 768 ft 0 kts 266°
2026-04-22 11:15 49.43984 7.58908 768 ft 8 kts 266°
2026-04-22 11:15 49.43987 7.58987 768 ft 4 kts 266°
2026-04-22 11:15 49.43988 7.58994 768 ft 0 kts 266°
2026-04-22 11:19 49.43988 7.58990 768 ft 1 kts 266°
2026-04-22 11:19 49.43987 7.58973 768 ft 2 kts 266°
2026-04-22 11:19 49.43989 7.58932 768 ft 4 kts 295°
2026-04-22 11:20 49.44014 7.58910 768 ft 5 kts 344°
2026-04-22 11:20 49.44047 7.58882 768 ft 6 kts 308°
2026-04-22 11:20 49.44048 7.58828 768 ft 6 kts 266°
2026-04-22 11:20 49.44044 7.58745 768 ft 11 kts 265°
2026-04-22 11:21 49.44038 7.58602 768 ft 15 kts 268°
2026-04-22 11:21 49.44033 7.58424 768 ft 18 kts 265°
2026-04-22 11:21 49.44027 7.58321 768 ft 5 kts 265°
2026-04-22 11:21 49.44019 7.58284 768 ft 2 kts 223°
2026-04-22 11:22 49.44007 7.58276 768 ft 4 kts 197°
2026-04-22 11:22 49.43941 7.58275 768 ft 10 kts 173°
2026-04-22 11:22 49.43879 7.58311 768 ft 9 kts 140°
2026-04-22 11:22 49.43837 7.58354 768 ft 7 kts 162°
2026-04-22 11:23 49.43780 7.58366 768 ft 9 kts 176°
2026-04-22 11:23 49.43746 7.58369 768 ft 0 kts 176°
2026-04-22 11:23 49.43743 7.58369 768 ft 2 kts 176°
2026-04-22 11:24 49.43709 7.58372 767 ft 8 kts 176°
2026-04-22 11:24 49.43651 7.58382 766 ft 8 kts 162°
2026-04-22 11:24 49.43626 7.58433 765 ft 5 kts 101°
2026-04-22 11:24 49.43625 7.58492 765 ft 0 kts 85°
2026-04-22 11:25 49.43630 7.58595 766 ft 39 kts 85°
2026-04-22 11:25 49.43664 7.59368 766 ft 103 kts 86°
2026-04-22 11:25 49.43720 7.60701 770 ft 144 kts 86°
2026-04-22 11:25 49.43778 7.62252 1203 ft 143 kts 86°
2026-04-22 11:26 49.43826 7.63805 1801 ft 150 kts 86°
2026-04-22 11:26 49.43855 7.65445 2414 ft 161 kts 89°
2026-04-22 11:26 49.43845 7.67295 2955 ft 183 kts 78°
2026-04-22 11:26 49.44509 7.68938 3483 ft 190 kts 43°
2026-04-22 11:27 49.45712 7.69980 4072 ft 213 kts 24°
2026-04-22 11:27 49.47170 7.70689 4671 ft 222 kts 25°
2026-04-22 11:27 49.48433 7.72016 5181 ft 218 kts 55°
2026-04-22 11:27 49.49261 7.74009 5769 ft 227 kts 62°
2026-04-22 11:28 49.50086 7.76078 6310 ft 228 kts 61°
2026-04-22 11:28 49.50916 7.78190 6834 ft 229 kts 63°
2026-04-22 11:28 49.51696 7.80329 7309 ft 233 kts 63°
2026-04-22 11:28 49.52506 7.82514 7828 ft 235 kts 62°
2026-04-22 11:29 49.53331 7.84697 8331 ft 238 kts 63°
2026-04-22 11:29 49.54176 7.86898 8843 ft 240 kts 57°
2026-04-22 11:29 49.55446 7.88609 9361 ft 250 kts 32°
2026-04-22 11:29 49.57113 7.89431 9914 ft 260 kts
2026-04-22 11:30 49.58938 7.89091 10453 ft 271 kts 344°
2026-04-22 11:30 49.60571 7.87493 10977 ft 291 kts 320°
2026-04-22 11:30 49.62048 7.85210 11495 ft 309 kts 318°
2026-04-22 11:30 49.63610 7.82801 11996 ft 327 kts 318°
2026-04-22 11:31 49.65249 7.80236 12503 ft 344 kts 317°
2026-04-22 11:31 49.66959 7.77520 13003 ft 361 kts 317°
2026-04-22 11:31 49.68768 7.74713 13500 ft 376 kts 318°
2026-04-22 11:31 49.70656 7.71807 14012 ft 389 kts 318°
2026-04-22 11:32 49.72575 7.68812 14467 ft 396 kts 317°
2026-04-22 11:32 49.74539 7.65727 14907 ft 408 kts 317°
2026-04-22 11:32 49.76538 7.62585 15361 ft 411 kts 317°
2026-04-22 11:32 49.78497 7.59354 15816 ft 413 kts 312°
2026-04-22 11:33 49.80349 7.55929 16261 ft 417 kts 313°
2026-04-22 11:33 49.82245 7.52519 16757 ft 419 kts 314°
2026-04-22 11:33 49.84158 7.49100 17227 ft 420 kts 313°
2026-04-22 11:33 49.85980 7.45758 17694 ft 399 kts 312°
2026-04-22 11:34 49.87770 7.42458 18166 ft 402 kts 313°
2026-04-22 11:34 49.89561 7.39202 18648 ft 390 kts 313°
2026-04-22 11:34 49.91303 7.36039 19062 ft 391 kts 313°
2026-04-22 11:34 49.92861 7.32495 19504 ft 398 kts 296°
2026-04-22 11:35 49.93659 7.28428 19965 ft 403 kts 285°
2026-04-22 11:35 49.94299 7.24112 20433 ft 407 kts 285°
2026-04-22 11:35 49.94933 7.19871 20894 ft 410 kts 285°
2026-04-22 11:35 49.95575 7.15556 21360 ft 412 kts 285°
2026-04-22 11:36 49.96222 7.11212 21832 ft 414 kts 285°
2026-04-22 11:36 49.96882 7.06845 22310 ft 415 kts 285°
2026-04-22 11:36 49.97542 7.02461 22782 ft 420 kts 285°
2026-04-22 11:36 49.98291 6.98095 23278 ft 417 kts 294°
2026-04-22 11:37 49.99754 6.94247 23754 ft 415 kts 312°
2026-04-22 11:37 50.01876 6.91225 24205 ft 414 kts 329°
2026-04-22 11:37 50.04458 6.89321 24658 ft 410 kts 346°
2026-04-22 11:37 50.07244 6.88466 25127 ft 409 kts 353°
2026-04-22 11:38 50.10069 6.87774 25577 ft 412 kts 353°
2026-04-22 11:38 50.12909 6.87098 26020 ft 414 kts 353°
2026-04-22 11:38 50.18630 6.85714 26947 ft 418 kts 353°
2026-04-22 11:39 50.21521 6.84991 27245 ft 425 kts 353°
2026-04-22 11:39 50.24471 6.84265 27294 ft 435 kts 353°
2026-04-22 11:39 50.27500 6.83528 27318 ft 449 kts 353°
2026-04-22 11:39 50.30634 6.82756 27310 ft 458 kts 353°
2026-04-22 11:40 50.33807 6.81966 27303 ft 466 kts 353°
2026-04-22 11:40 50.37033 6.81168 27303 ft 471 kts 353°
2026-04-22 11:40 50.40267 6.80370 27321 ft 470 kts 353°
2026-04-22 11:40 50.43501 6.79569 27311 ft 470 kts 353°
2026-04-22 11:41 50.46733 6.78764 27305 ft 471 kts 353°
2026-04-22 11:41 50.49976 6.77957 27317 ft 471 kts 353°
2026-04-22 11:41 50.53209 6.77150 27315 ft 470 kts 353°
2026-04-22 11:41 50.56441 6.76343 27316 ft 471 kts 353°
2026-04-22 11:42 50.59682 6.75526 27319 ft 472 kts 353°
2026-04-22 11:42 50.62852 6.74202 27361 ft 474 kts 343°
2026-04-22 11:42 50.65969 6.72462 27352 ft 475 kts 343°
2026-04-22 11:42 50.69096 6.70758 27350 ft 475 kts 344°
2026-04-22 11:43 50.72223 6.69107 27353 ft 474 kts 344°
2026-04-22 11:43 50.75350 6.67421 27354 ft 475 kts 344°
2026-04-22 11:43 50.78529 6.66119 27354 ft 470 kts 356°
2026-04-22 11:43 50.81772 6.66067 27358 ft 465 kts
2026-04-22 11:44 50.84909 6.67190 27359 ft 461 kts 21°
2026-04-22 11:44 50.87751 6.69387 27361 ft 449 kts 33°
2026-04-22 11:44 50.90357 6.72110 27361 ft 449 kts 34°
2026-04-22 11:44 50.92968 6.74858 27359 ft 452 kts 34°
2026-04-22 11:45 50.95578 6.77619 27357 ft 451 kts 34°
2026-04-22 11:45 50.98182 6.80384 27357 ft 450 kts 34°
2026-04-22 11:45 51.00788 6.83133 27356 ft 451 kts 34°
2026-04-22 11:45 51.03403 6.85889 27356 ft 451 kts 34°
2026-04-22 11:46 51.06013 6.88656 27354 ft 451 kts 34°
2026-04-22 11:46 51.08618 6.91426 27355 ft 450 kts 34°
2026-04-22 11:46 51.11224 6.94194 27353 ft 451 kts 34°
2026-04-22 11:46 51.13799 6.96929 27342 ft 451 kts 34°
2026-04-22 11:47 51.16432 6.99733 27345 ft 448 kts 34°
2026-04-22 11:47 51.19020 7.02497 27344 ft 449 kts 35°
2026-04-22 11:47 51.21617 7.05272 27344 ft 450 kts 34°
2026-04-22 11:47 51.24215 7.08049 27348 ft 449 kts 35°
2026-04-22 11:48 51.26808 7.10826 27346 ft 448 kts 35°
2026-04-22 11:48 51.29402 7.13611 27347 ft 449 kts 35°
2026-04-22 11:48 51.31994 7.16395 27351 ft 450 kts 35°
2026-04-22 11:48 51.34591 7.19187 27346 ft 449 kts 35°
2026-04-22 11:49 51.37178 7.21972 27358 ft 446 kts 35°
2026-04-22 11:49 51.39714 7.24708 27363 ft 446 kts 35°
2026-04-22 11:49 51.42290 7.27494 27363 ft 448 kts 35°
2026-04-22 11:49 51.44875 7.30288 27362 ft 447 kts 35°
2026-04-22 11:50 51.47449 7.33075 27353 ft 446 kts 35°
2026-04-22 11:50 51.50021 7.35865 27364 ft 446 kts 35°
2026-04-22 11:50 51.52597 7.38663 27365 ft 447 kts 35°
2026-04-22 11:50 51.55173 7.41465 27364 ft 447 kts 35°
2026-04-22 11:51 51.57748 7.44270 27365 ft 447 kts 35°
2026-04-22 11:51 51.60318 7.47070 27365 ft 445 kts 35°
2026-04-22 11:51 51.62878 7.49867 27363 ft 445 kts 35°
2026-04-22 11:51 51.65444 7.52675 27371 ft 446 kts 35°
2026-04-22 11:52 51.68047 7.55527 27370 ft 446 kts 35°
2026-04-22 11:52 51.70580 7.58302 27368 ft 445 kts 35°
2026-04-22 11:52 51.73175 7.61151 27368 ft 445 kts 35°
2026-04-22 11:52 51.75703 7.63933 27372 ft 446 kts 35°
2026-04-22 11:53 51.78267 7.66758 27372 ft 446 kts 35°
2026-04-22 11:53 51.80830 7.69585 27373 ft 445 kts 35°
2026-04-22 11:53 51.83379 7.72399 27369 ft 444 kts 35°
2026-04-22 11:53 51.85933 7.75223 27370 ft 445 kts 35°
2026-04-22 11:54 51.88491 7.78058 27369 ft 446 kts 35°
2026-04-22 11:54 51.91044 7.80888 27368 ft 445 kts 35°
2026-04-22 11:54 51.93595 7.83721 27396 ft 445 kts 35°
2026-04-22 11:54 51.96142 7.86555 27391 ft 444 kts 35°
2026-04-22 11:55 51.98689 7.89390 27390 ft 444 kts 35°
2026-04-22 11:55 52.01238 7.92234 27389 ft 444 kts 35°
2026-04-22 11:55 52.03783 7.95077 27390 ft 444 kts 35°
2026-04-22 11:55 52.06325 7.97919 27390 ft 443 kts 35°
2026-04-22 11:56 52.08862 8.00761 27389 ft 443 kts 35°
2026-04-22 11:56 52.11401 8.03610 27390 ft 444 kts 35°
2026-04-22 11:56 52.13946 8.06468 27375 ft 444 kts 35°
2026-04-22 11:56 52.16484 8.09321 27378 ft 443 kts 35°
2026-04-22 11:57 52.19015 8.12174 27375 ft 443 kts 35°
2026-04-22 11:57 52.21552 8.15036 27376 ft 444 kts 35°
2026-04-22 11:57 52.24095 8.17906 27375 ft 444 kts 35°
2026-04-22 11:57 52.26628 8.20771 27385 ft 443 kts 35°
2026-04-22 11:58 52.29156 8.23638 27385 ft 442 kts 35°
2026-04-22 11:58 52.31685 8.26505 27386 ft 443 kts 35°
2026-04-22 11:58 52.34219 8.29382 27390 ft 444 kts 35°
2026-04-22 11:58 52.36753 8.32267 27389 ft 443 kts 35°
2026-04-22 11:59 52.38604 8.34375 27390 ft 442 kts 35°
2026-04-22 11:59 52.41102 8.37228 27392 ft 443 kts 35°
2026-04-22 11:59 52.43623 8.40115 27396 ft 443 kts 35°
2026-04-22 11:59 52.46155 8.43010 27397 ft 444 kts 35°
2026-04-22 12:00 52.48681 8.45900 27385 ft 442 kts 35°
2026-04-22 12:00 52.51202 8.48792 27385 ft 442 kts 35°
2026-04-22 12:00 52.53719 8.51684 27398 ft 442 kts 35°
2026-04-22 12:00 52.56240 8.54583 27397 ft 443 kts 35°
2026-04-22 12:01 52.58764 8.57488 27395 ft 442 kts 35°
2026-04-22 12:01 52.61281 8.60393 27397 ft 442 kts 35°
2026-04-22 12:01 52.63797 8.63301 27396 ft 443 kts 35°
2026-04-22 12:01 52.66318 8.66217 27397 ft 443 kts 35°
2026-04-22 12:02 52.68841 8.69136 27395 ft 442 kts 35°
2026-04-22 12:02 52.71354 8.72054 27385 ft 442 kts 35°
2026-04-22 12:02 52.73873 8.74981 27387 ft 442 kts 35°
2026-04-22 12:02 52.76385 8.77900 27389 ft 443 kts 35°
2026-04-22 12:03 52.79019 8.80537 27392 ft 443 kts 29°
2026-04-22 12:03 52.81742 8.82919 27396 ft 443 kts 28°
2026-04-22 12:03 52.84459 8.85312 27398 ft 443 kts 29°
2026-04-22 12:03 52.87155 8.87762 27401 ft 442 kts 29°
2026-04-22 12:04 52.89855 8.90210 27402 ft 443 kts 29°
2026-04-22 12:04 52.92570 8.92633 27396 ft 443 kts 28°
2026-04-22 12:04 52.95279 8.95061 27398 ft 443 kts 28°
2026-04-22 12:04 52.97985 8.97513 27397 ft 443 kts 29°
2026-04-22 12:05 53.00691 8.99965 27396 ft 443 kts 28°
2026-04-22 12:05 53.03396 9.02406 27395 ft 443 kts 28°
2026-04-22 12:05 53.06102 9.04853 27396 ft 443 kts 29°
2026-04-22 12:05 53.08805 9.07309 27394 ft 443 kts 29°
2026-04-22 12:06 53.11513 9.09772 27392 ft 443 kts 29°
2026-04-22 12:06 53.14218 9.12231 27388 ft 443 kts 29°
2026-04-22 12:06 53.16917 9.14691 27387 ft 443 kts 29°
2026-04-22 12:06 53.19622 9.17160 27380 ft 443 kts 29°
2026-04-22 12:07 53.22327 9.19630 27382 ft 443 kts 29°
2026-04-22 12:07 53.24998 9.22077 27378 ft 443 kts 29°
2026-04-22 12:07 53.26819 9.23745 27378 ft 443 kts 29°
2026-04-22 12:07 53.29524 9.26227 27375 ft 443 kts 29°
2026-04-22 12:08 53.32236 9.28717 27378 ft 446 kts 29°
2026-04-22 12:08 53.34952 9.31216 27381 ft 445 kts 29°
2026-04-22 12:08 53.37656 9.33711 27382 ft 444 kts 29°
2026-04-22 12:08 53.40375 9.36220 27379 ft 446 kts 29°
2026-04-22 12:09 53.43092 9.38729 27379 ft 446 kts 29°
2026-04-22 12:09 53.45806 9.41241 27371 ft 445 kts 29°
2026-04-22 12:09 53.48518 9.43755 27391 ft 445 kts 29°
2026-04-22 12:09 53.51266 9.46137 27396 ft 446 kts 26°
2026-04-22 12:10 53.54054 9.48449 27399 ft 446 kts 27°
2026-04-22 12:10 53.56815 9.50817 27400 ft 445 kts 27°
2026-04-22 12:10 53.59577 9.53172 27400 ft 445 kts 27°
2026-04-22 12:10 53.62353 9.55490 27394 ft 446 kts 26°
2026-04-22 12:11 53.65170 9.57698 27374 ft 449 kts 20°
2026-04-22 12:11 53.68201 9.58942 27398 ft 449 kts 12°
2026-04-22 12:11 53.71270 9.59942 27392 ft 448 kts 12°
2026-04-22 12:11 53.74323 9.60997 27392 ft 448 kts 13°
2026-04-22 12:12 53.77385 9.62039 27376 ft 449 kts 12°
2026-04-22 12:12 53.80453 9.63046 27377 ft 449 kts 12°
2026-04-22 12:12 53.83510 9.64067 27377 ft 449 kts 12°
2026-04-22 12:12 53.86577 9.65123 27367 ft 449 kts 13°
2026-04-22 12:13 53.89644 9.66165 27367 ft 451 kts 12°
2026-04-22 12:13 53.92722 9.67197 27366 ft 451 kts 12°
2026-04-22 12:13 53.95790 9.68236 27364 ft 449 kts 12°
2026-04-22 12:13 53.98865 9.69288 27364 ft 457 kts 12°
2026-04-22 12:14 54.02020 9.70366 27373 ft 465 kts 12°
2026-04-22 12:14 54.05177 9.71436 27370 ft 460 kts 12°
2026-04-22 12:14 54.08313 9.72504 27368 ft 460 kts 12°
2026-04-22 12:14 54.11457 9.73583 27364 ft 461 kts 13°
2026-04-22 12:15 54.14605 9.74662 27373 ft 462 kts 13°
2026-04-22 12:15 54.17748 9.75739 27374 ft 456 kts 13°
2026-04-22 12:15 54.20832 9.76797 27368 ft 454 kts 13°
2026-04-22 12:15 54.23945 9.77872 27370 ft 457 kts 13°
2026-04-22 12:16 54.27056 9.78922 27373 ft 456 kts 12°
2026-04-22 12:16 54.30182 9.79878 27371 ft 456 kts 11°
2026-04-22 12:16 54.33263 9.80814 27371 ft 457 kts 12°
2026-04-22 12:16 54.36387 9.81832 27362 ft 457 kts 12°
2026-04-22 12:17 54.39555 9.82871 27365 ft 458 kts 12°
2026-04-22 12:17 54.42689 9.83859 27365 ft 458 kts 12°
2026-04-22 12:17 54.45822 9.84845 27366 ft 458 kts 12°
2026-04-22 12:17 54.48911 9.85848 27363 ft 457 kts 12°
2026-04-22 12:18 54.52035 9.86862 27364 ft 457 kts 12°
2026-04-22 12:18 54.55209 9.87866 27363 ft 458 kts 12°
2026-04-22 12:18 54.58305 9.88843 27360 ft 458 kts 12°
2026-04-22 12:18 54.61476 9.89860 27352 ft 458 kts 12°
2026-04-22 12:19 54.64570 9.90860 27352 ft 459 kts 12°
2026-04-22 12:19 54.67751 9.91881 27351 ft 459 kts 12°
2026-04-22 12:19 54.70844 9.92886 27348 ft 458 kts 13°
2026-04-22 12:19 54.73977 9.93919 27346 ft 458 kts 13°
2026-04-22 12:20 54.77109 9.94943 27347 ft 459 kts 12°
2026-04-22 12:20 54.80250 9.95963 27348 ft 459 kts 12°
2026-04-22 12:20 54.83386 9.96990 27348 ft 459 kts 13°
2026-04-22 12:20 54.86519 9.98019 27356 ft 458 kts 13°
2026-04-22 12:21 54.89655 9.99034 27370 ft 460 kts 12°
2026-04-22 12:21 54.92866 9.99372 27377 ft 464 kts
2026-04-22 12:21 54.96089 9.99307 27377 ft 464 kts
2026-04-22 12:21 54.99313 9.99331 27374 ft 463 kts
2026-04-22 12:22 55.02532 9.99381 27374 ft 463 kts
2026-04-22 12:22 55.05758 9.99365 27375 ft 464 kts
2026-04-22 12:22 55.08983 9.99340 27369 ft 464 kts
2026-04-22 12:22 55.12211 9.99358 27358 ft 464 kts
2026-04-22 12:23 55.15445 9.99376 27357 ft 465 kts
2026-04-22 12:23 55.18687 9.99371 27349 ft 466 kts
2026-04-22 12:23 55.21924 9.99365 27350 ft 465 kts
2026-04-22 12:23 55.25153 9.99376 27344 ft 465 kts
2026-04-22 12:24 55.28391 9.99384 27340 ft 465 kts
2026-04-22 12:24 55.31634 9.99384 27335 ft 466 kts
2026-04-22 12:24 55.34870 9.99384 27337 ft 464 kts
2026-04-22 12:24 55.38092 9.99389 27313 ft 463 kts
2026-04-22 12:25 55.41326 9.99396 27338 ft 468 kts
2026-04-22 12:25 55.44586 9.99402 27339 ft 467 kts
2026-04-22 12:25 55.47827 9.99401 27339 ft 466 kts
2026-04-22 12:25 55.51072 9.99405 27336 ft 467 kts
2026-04-22 12:26 55.54322 9.99412 27334 ft 467 kts
2026-04-22 12:26 55.57570 9.99415 27334 ft 467 kts
2026-04-22 12:26 55.60817 9.99417 27331 ft 466 kts
2026-04-22 12:26 55.64059 9.99423 27330 ft 467 kts
2026-04-22 12:27 55.67307 9.99423 27328 ft 467 kts
2026-04-22 12:27 55.70556 9.99423 27330 ft 467 kts
2026-04-22 12:27 55.73805 9.99430 27329 ft 466 kts
2026-04-22 12:27 55.77046 9.99432 27328 ft 466 kts
2026-04-22 12:28 55.80296 9.99430 27329 ft 467 kts
2026-04-22 12:28 55.83545 9.99434 27329 ft 467 kts
2026-04-22 12:28 55.86795 9.99438 27329 ft 467 kts
2026-04-22 12:28 55.90039 9.99440 27320 ft 466 kts
2026-04-22 12:29 55.93292 9.99444 27318 ft 470 kts
2026-04-22 12:29 55.96564 9.99446 27322 ft 470 kts
2026-04-22 12:29 55.99825 9.99445 27323 ft 468 kts
2026-04-22 12:29 56.03080 9.99444 27320 ft 469 kts
2026-04-22 12:30 56.09610 9.99448 27321 ft 469 kts
2026-04-22 12:30 56.12873 9.99445 27316 ft 468 kts
2026-04-22 12:30 56.16130 9.99450 27315 ft 469 kts
2026-04-22 12:31 56.19396 9.99462 27320 ft 470 kts
2026-04-22 12:31 56.22678 9.99466 27317 ft 472 kts
2026-04-22 12:31 56.25958 9.99464 27317 ft 471 kts
2026-04-22 12:31 56.29233 9.99466 27317 ft 470 kts
2026-04-22 12:32 56.32506 9.99477 27317 ft 471 kts
2026-04-22 12:32 56.39060 9.99482 27318 ft 471 kts
2026-04-22 12:32 56.42335 9.99486 27317 ft 470 kts
2026-04-22 12:33 56.45602 9.99491 27311 ft 471 kts
2026-04-22 12:33 56.48901 9.99499 27313 ft 474 kts
2026-04-22 12:33 56.52190 9.99499 27314 ft 472 kts
2026-04-22 12:33 56.55472 9.99499 27318 ft 472 kts
2026-04-22 12:34 56.58758 9.99508 27317 ft 473 kts
2026-04-22 12:34 56.62049 9.99514 27315 ft 473 kts
2026-04-22 12:34 56.65339 9.99512 27318 ft 472 kts
2026-04-22 12:34 56.68627 9.99513 27312 ft 472 kts
2026-04-22 12:35 56.71915 9.99521 27312 ft 473 kts
2026-04-22 12:35 56.75213 9.99527 27317 ft 475 kts
2026-04-22 12:35 56.78517 9.99526 27316 ft 475 kts
2026-04-22 12:35 56.81820 9.99526 27309 ft 474 kts
2026-04-22 12:36 56.85114 9.99533 27308 ft 474 kts
2026-04-22 12:36 56.88411 9.99539 27297 ft 475 kts
2026-04-22 12:36 56.91725 9.99542 27304 ft 476 kts
2026-04-22 12:36 56.95035 9.99542 27309 ft 475 kts
2026-04-22 12:37 56.98337 9.99547 27288 ft 474 kts
2026-04-22 12:37 57.01651 9.99553 27318 ft 478 kts
2026-04-22 12:37 57.04980 9.99557 27319 ft 478 kts
2026-04-22 12:37 57.08299 9.99553 27318 ft 476 kts
2026-04-22 12:38 57.11609 9.99682 27317 ft 474 kts
2026-04-22 12:38 57.14901 10.00128 27319 ft 475 kts
2026-04-22 12:38 57.18201 10.00534 27318 ft 475 kts
2026-04-22 12:38 57.21495 10.00888 27320 ft 474 kts
2026-04-22 12:39 57.24786 10.01284 27320 ft 474 kts
2026-04-22 12:39 57.31400 10.02119 27312 ft 478 kts
2026-04-22 12:39 57.34712 10.02504 27313 ft 476 kts
2026-04-22 12:40 57.38015 10.02906 27310 ft 476 kts
2026-04-22 12:40 57.41326 10.03324 27312 ft 477 kts
2026-04-22 12:40 57.44638 10.03731 27309 ft 477 kts
2026-04-22 12:40 57.47949 10.04129 27305 ft 476 kts
2026-04-22 12:41 57.51255 10.04535 27308 ft 476 kts
2026-04-22 12:41 57.54565 10.04952 27305 ft 477 kts
2026-04-22 12:41 57.57886 10.05363 27304 ft 479 kts
2026-04-22 12:41 57.61210 10.05765 27302 ft 478 kts
2026-04-22 12:42 57.64520 10.06175 27300 ft 477 kts
2026-04-22 12:42 57.67837 10.06596 27304 ft 478 kts
2026-04-22 12:42 57.71155 10.07006 27302 ft 479 kts
2026-04-22 12:42 57.74476 10.07415 27303 ft 478 kts
2026-04-22 12:43 57.77793 10.07833 27299 ft 477 kts
2026-04-22 12:43 57.81109 10.08250 27300 ft 477 kts
2026-04-22 12:43 57.84414 10.08660 27299 ft 475 kts
2026-04-22 12:43 57.87716 10.09076 27301 ft 476 kts
2026-04-22 12:44 57.91026 10.09494 27299 ft 477 kts
2026-04-22 12:44 57.94335 10.09908 27302 ft 476 kts
2026-04-22 12:44 57.97640 10.10327 27295 ft 476 kts
2026-04-22 12:44 58.00940 10.10747 27296 ft 476 kts
2026-04-22 12:45 58.04248 10.11163 27299 ft 477 kts
2026-04-22 12:45 58.07557 10.11585 27300 ft 476 kts
2026-04-22 12:45 58.10848 10.12004 27289 ft 471 kts
2026-04-22 12:45 58.14074 10.12411 27287 ft 472 kts
2026-04-22 12:46 58.17398 10.12841 27285 ft 474 kts
2026-04-22 12:46 58.20642 10.13257 27285 ft 473 kts
2026-04-22 12:46 58.23920 10.13670 27285 ft 472 kts
2026-04-22 12:46 58.27200 10.14095 27285 ft 473 kts
2026-04-22 12:47 58.30486 10.14521 27277 ft 473 kts
2026-04-22 12:47 58.33771 10.14939 27278 ft 472 kts
2026-04-22 12:47 58.37046 10.15362 27277 ft 472 kts
2026-04-22 12:47 58.40322 10.15789 27277 ft 473 kts
2026-04-22 12:48 58.43607 10.16210 27278 ft 473 kts
2026-04-22 12:48 58.46890 10.16635 27278 ft 472 kts
2026-04-22 12:48 58.50164 10.17063 27277 ft 472 kts
2026-04-22 12:48 58.53441 10.17486 27277 ft 472 kts
2026-04-22 12:49 58.56722 10.17915 27275 ft 473 kts
2026-04-22 12:49 58.60003 10.18345 27275 ft 473 kts
2026-04-22 12:49 58.63285 10.18770 27261 ft 472 kts
2026-04-22 12:49 58.66547 10.19198 27277 ft 468 kts
2026-04-22 12:50 58.69804 10.19629 27277 ft 470 kts
2026-04-22 12:50 58.73069 10.20057 27276 ft 471 kts
2026-04-22 12:50 58.75272 10.20345 27275 ft 470 kts
2026-04-22 12:50 58.78533 10.20777 27275 ft 469 kts
2026-04-22 12:51 58.81791 10.21208 27269 ft 470 kts
2026-04-22 12:51 58.85052 10.21638 27272 ft 470 kts
2026-04-22 12:51 58.88321 10.22074 27272 ft 470 kts
2026-04-22 12:51 58.91581 10.22507 27258 ft 469 kts
2026-04-22 12:52 58.94832 10.22937 27273 ft 467 kts
2026-04-22 12:52 58.98070 10.23374 27264 ft 467 kts
2026-04-22 12:52 59.01322 10.23817 27264 ft 469 kts
2026-04-22 12:52 59.04571 10.24253 27248 ft 468 kts
2026-04-22 12:53 59.07830 10.24691 27262 ft 472 kts
2026-04-22 12:53 59.11105 10.25138 27263 ft 471 kts
2026-04-22 12:53 59.14373 10.25583 27262 ft 470 kts
2026-04-22 12:53 59.17587 10.26483 27262 ft 464 kts 19°
2026-04-22 12:54 59.20631 10.28538 27271 ft 463 kts 23°
2026-04-22 12:54 59.23659 10.30703 27274 ft 463 kts 22°
2026-04-22 12:54 59.26693 10.32820 27351 ft 462 kts 22°
2026-04-22 12:54 59.29717 10.34962 27281 ft 462 kts 22°
2026-04-22 12:55 59.32719 10.37122 27260 ft 459 kts 22°
2026-04-22 12:55 59.35727 10.39265 27260 ft 461 kts 22°
2026-04-22 12:55 59.38751 10.41406 27265 ft 461 kts 22°
2026-04-22 12:55 59.41762 10.43555 27260 ft 460 kts 22°
2026-04-22 12:56 59.44769 10.45718 27257 ft 461 kts 22°
2026-04-22 12:56 59.47781 10.47880 27250 ft 461 kts 22°
2026-04-22 12:56 59.50794 10.50041 27252 ft 462 kts 22°
2026-04-22 12:56 59.53819 10.52217 27252 ft 462 kts 22°
2026-04-22 12:57 59.56837 10.54395 27252 ft 461 kts 22°
2026-04-22 12:57 59.59848 10.56572 27248 ft 461 kts 22°
2026-04-22 12:57 59.62867 10.58759 27245 ft 462 kts 22°
2026-04-22 12:57 59.65886 10.60950 27240 ft 462 kts 22°
2026-04-22 12:58 59.68900 10.63142 27228 ft 461 kts 22°
2026-04-22 12:58 59.71918 10.65338 27228 ft 462 kts 22°
2026-04-22 12:58 59.74935 10.67539 27218 ft 462 kts 22°
2026-04-22 12:58 59.77975 10.69577 27211 ft 463 kts 15°
2026-04-22 12:59 59.81184 10.70486 27233 ft 467 kts
2026-04-22 12:59 59.84413 10.71190 27234 ft 468 kts
2026-04-22 12:59 59.87642 10.71976 27228 ft 467 kts 10°
2026-04-22 12:59 59.90863 10.72738 27229 ft 466 kts
2026-04-22 13:00 59.94087 10.73453 27231 ft 467 kts
2026-04-22 13:00 59.97317 10.74197 27233 ft 467 kts
2026-04-22 13:00 60.00542 10.74970 27235 ft 466 kts
2026-04-22 13:00 60.03755 10.75723 27230 ft 466 kts
2026-04-22 13:01 60.06975 10.76463 27230 ft 464 kts
2026-04-22 13:01 60.10140 10.77202 27230 ft 465 kts
2026-04-22 13:01 60.13351 10.77966 27215 ft 466 kts
2026-04-22 13:01 60.16570 10.78721 27214 ft 465 kts
2026-04-22 13:02 60.19778 10.79473 27211 ft 464 kts
2026-04-22 13:02 60.22990 10.80237 27212 ft 465 kts
2026-04-22 13:02 60.26208 10.80997 27212 ft 466 kts
2026-04-22 13:02 60.29420 10.81758 27210 ft 465 kts
2026-04-22 13:03 60.32629 10.82523 27208 ft 464 kts
2026-04-22 13:03 60.35837 10.83310 27203 ft 464 kts 11°
2026-04-22 13:03 60.38977 10.84743 27215 ft 463 kts 16°
2026-04-22 13:03 60.42092 10.86397 27214 ft 463 kts 16°
2026-04-22 13:04 60.45219 10.88002 27216 ft 463 kts 15°
2026-04-22 13:04 60.48344 10.89539 27218 ft 462 kts 15°
2026-04-22 13:04 60.51467 10.91115 27217 ft 463 kts 15°
2026-04-22 13:04 60.54593 10.92738 27209 ft 464 kts 15°
2026-04-22 13:05 60.57718 10.94335 27211 ft 463 kts 15°
2026-04-22 13:05 60.60841 10.95911 27204 ft 462 kts 15°
2026-04-22 13:05 60.63958 10.97512 27210 ft 463 kts 15°
2026-04-22 13:05 60.67080 10.99132 27210 ft 462 kts 15°
2026-04-22 13:06 60.70199 11.00730 27210 ft 462 kts 15°
2026-04-22 13:06 60.73315 11.02325 27208 ft 462 kts 15°
2026-04-22 13:06 60.76432 11.03940 27208 ft 463 kts 15°
2026-04-22 13:06 60.79551 11.05564 27207 ft 463 kts 15°
2026-04-22 13:07 60.82644 11.07347 27205 ft 461 kts 20°
2026-04-22 13:07 60.85650 11.09638 27203 ft 461 kts 21°
2026-04-22 13:07 60.88653 11.11981 27201 ft 462 kts 20°
2026-04-22 13:07 60.91669 11.14253 27207 ft 462 kts 20°
2026-04-22 13:08 60.94691 11.16509 27119 ft 462 kts 20°
2026-04-22 13:08 60.97605 11.18741 26727 ft 433 kts 20°
2026-04-22 13:08 61.00384 11.20893 26331 ft 424 kts 20°
2026-04-22 13:08 61.03160 11.23015 25954 ft 428 kts 20°
2026-04-22 13:09 61.05966 11.25151 25594 ft 430 kts 20°
2026-04-22 13:09 61.08763 11.27304 25236 ft 428 kts 20°
2026-04-22 13:09 61.11542 11.29454 24879 ft 425 kts 20°
2026-04-22 13:09 61.14310 11.31585 24527 ft 423 kts 20°
2026-04-22 13:10 61.17066 11.33717 24184 ft 422 kts 20°
2026-04-22 13:10 61.19806 11.35856 23820 ft 421 kts 20°
2026-04-22 13:10 61.22572 11.38002 23317 ft 429 kts 20°
2026-04-22 13:10 61.25359 11.40143 22815 ft 424 kts 19°
2026-04-22 13:11 61.28102 11.42270 22313 ft 418 kts 20°
2026-04-22 13:11 61.30804 11.44391 21819 ft 413 kts 20°
2026-04-22 13:11 61.33482 11.46517 21333 ft 411 kts 20°
2026-04-22 13:11 61.36145 11.48626 20857 ft 408 kts 20°
2026-04-22 13:12 61.38788 11.50696 20392 ft 404 kts 20°
2026-04-22 13:12 61.41401 11.52742 19928 ft 399 kts 20°
2026-04-22 13:12 61.43993 11.54788 19476 ft 397 kts 19°
2026-04-22 13:12 61.46544 11.56804 19247 ft 388 kts 19°
2026-04-22 13:13 61.49076 11.58796 19227 ft 391 kts 19°
2026-04-22 13:13 61.51634 11.60792 19229 ft 393 kts 19°
2026-04-22 13:13 61.54195 11.62799 19231 ft 393 kts 19°
2026-04-22 13:13 61.56752 11.64823 19234 ft 393 kts 19°
2026-04-22 13:14 61.59315 11.66864 18982 ft 396 kts 19°
2026-04-22 13:14 61.61881 11.68913 18633 ft 391 kts 19°
2026-04-22 13:14 61.64406 11.70931 18233 ft 387 kts 19°
2026-04-22 13:14 61.66891 11.72913 17854 ft 386 kts 19°
2026-04-22 13:15 61.69391 11.74915 17446 ft 383 kts 19°
2026-04-22 13:15 61.71883 11.76919 17059 ft 383 kts 19°
2026-04-22 13:15 61.74367 11.78913 16693 ft 382 kts 19°
2026-04-22 13:15 61.76848 11.80910 16315 ft 381 kts 19°
2026-04-22 13:16 61.79315 11.82901 15942 ft 379 kts 19°
2026-04-22 13:16 61.81778 11.84891 15570 ft 378 kts 19°
2026-04-22 13:16 61.84230 11.86878 15210 ft 376 kts 19°
2026-04-22 13:16 61.86678 11.88862 14840 ft 375 kts 19°
2026-04-22 13:17 61.89116 11.90840 14493 ft 374 kts 18°
2026-04-22 13:17 61.91535 11.92812 14139 ft 373 kts 18°
2026-04-22 13:17 61.93953 11.94779 13752 ft 373 kts 18°
2026-04-22 13:17 61.96354 11.96739 13359 ft 367 kts 18°
2026-04-22 13:18 61.98724 11.98682 12969 ft 365 kts 19°
2026-04-22 13:18 62.01090 12.00615 12591 ft 360 kts 19°
2026-04-22 13:18 62.03414 12.02523 12202 ft 354 kts 19°
2026-04-22 13:18 62.05712 12.04413 11823 ft 355 kts 19°
2026-04-22 13:19 62.08024 12.06315 11460 ft 352 kts 19°
2026-04-22 13:19 62.10276 12.08171 11302 ft 346 kts 19°
2026-04-22 13:19 62.12522 12.10024 11267 ft 349 kts 19°
2026-04-22 13:19 62.14788 12.11900 11263 ft 350 kts 19°
2026-04-22 13:20 62.17035 12.13764 11259 ft 352 kts 18°
2026-04-22 13:20 62.19331 12.15663 11261 ft 356 kts 19°
2026-04-22 13:20 62.21609 12.17557 11263 ft 348 kts 19°
2026-04-22 13:20 62.23877 12.19451 11266 ft 352 kts 19°
2026-04-22 13:21 62.26151 12.21345 11265 ft 353 kts 19°
2026-04-22 13:21 62.28412 12.23235 11263 ft 344 kts 19°
2026-04-22 13:21 62.30678 12.25127 11261 ft 351 kts 19°
2026-04-22 13:21 62.32983 12.26851 11256 ft 347 kts 10°
2026-04-22 13:22 62.35254 12.26740 10995 ft 317 kts 344°
2026-04-22 13:22 62.37068 12.24357 10639 ft 302 kts 315°
2026-04-22 13:22 62.38007 12.20433 10283 ft 296 kts 286°
2026-04-22 13:22 62.38070 12.16072 9931 ft 285 kts 276°
2026-04-22 13:23 62.38158 12.11951 9523 ft 267 kts 284°
2026-04-22 13:23 62.38482 12.08128 9128 ft 252 kts 290°
2026-04-22 13:23 62.38968 12.04596 8747 ft 240 kts 297°
2026-04-22 13:23 62.39688 12.01462 8348 ft 228 kts 308°
2026-04-22 13:24 62.40600 11.98748 7978 ft 221 kts 312°
2026-04-22 13:24 62.41486 11.96070 7604 ft 218 kts 309°
2026-04-22 13:24 62.42310 11.93370 7350 ft 212 kts 309°
2026-04-22 13:24 62.43141 11.90758 7292 ft 212 kts 310°
2026-04-22 13:25 62.43978 11.88105 7277 ft 216 kts 309°
2026-04-22 13:25 62.44812 11.85415 7260 ft 215 kts 309°
2026-04-22 13:25 62.45647 11.82724 7256 ft 216 kts 309°
2026-04-22 13:25 62.46489 11.80035 7262 ft 215 kts 309°
2026-04-22 13:26 62.47305 11.77400 7272 ft 210 kts 309°
2026-04-22 13:26 62.48122 11.74774 7270 ft 211 kts 309°
2026-04-22 13:26 62.48940 11.72139 7269 ft 211 kts 309°
2026-04-22 13:26 62.49757 11.69502 7272 ft 210 kts 309°
2026-04-22 13:27 62.50570 11.66885 7267 ft 209 kts 308°
2026-04-22 13:27 62.51378 11.64264 7275 ft 211 kts 309°
2026-04-22 13:27 62.52198 11.61610 7278 ft 212 kts 309°
2026-04-22 13:27 62.53017 11.58968 7277 ft 211 kts 309°
2026-04-22 13:28 62.53829 11.56327 7277 ft 211 kts 309°
2026-04-22 13:28 62.54646 11.53670 7208 ft 213 kts 308°
2026-04-22 13:28 62.55463 11.51006 7083 ft 210 kts 309°
2026-04-22 13:28 62.56267 11.48392 6958 ft 207 kts 309°
2026-04-22 13:29 62.57060 11.45818 6938 ft 205 kts 309°
2026-04-22 13:29 62.57854 11.43222 6922 ft 208 kts 309°
2026-04-22 13:29 62.58651 11.40606 6924 ft 207 kts 308°
2026-04-22 13:29 62.59442 11.38010 6923 ft 207 kts 309°
2026-04-22 13:30 62.60250 11.35395 6915 ft 210 kts 309°
2026-04-22 13:30 62.61044 11.32788 6913 ft 206 kts 309°
2026-04-22 13:30 62.61839 11.30177 6913 ft 208 kts 309°
2026-04-22 13:30 62.62637 11.27553 6913 ft 208 kts 308°
2026-04-22 13:31 62.63428 11.24942 6915 ft 206 kts 309°
2026-04-22 13:31 62.64219 11.22343 6925 ft 207 kts 308°
2026-04-22 13:31 62.65016 11.19720 6939 ft 208 kts 308°
2026-04-22 13:31 62.65810 11.17097 6934 ft 207 kts 309°
2026-04-22 13:32 62.66603 11.14488 6916 ft 208 kts 308°
2026-04-22 13:32 62.67379 11.11881 6951 ft 206 kts 308°
2026-04-22 13:32 62.68176 11.09268 6947 ft 207 kts 309°
2026-04-22 13:32 62.68976 11.06648 6949 ft 208 kts 308°
2026-04-22 13:33 62.69760 11.04021 6965 ft 207 kts 307°
2026-04-22 13:33 62.70546 11.01393 6965 ft 207 kts 307°
2026-04-22 13:33 62.71068 10.99658 6958 ft 206 kts 307°
2026-04-22 13:33 62.71854 10.97047 6955 ft 206 kts 307°
2026-04-22 13:34 62.72643 10.94425 6953 ft 207 kts 307°
2026-04-22 13:34 62.73428 10.91797 6947 ft 207 kts 306°
2026-04-22 13:34 62.74216 10.89160 6949 ft 207 kts 307°
2026-04-22 13:34 62.75003 10.86543 6958 ft 207 kts 307°
2026-04-22 13:35 62.75780 10.83908 6963 ft 207 kts 306°
2026-04-22 13:35 62.76560 10.81285 6974 ft 207 kts 307°
2026-04-22 13:35 62.77359 10.78649 6954 ft 206 kts 308°
2026-04-22 13:35 62.78147 10.76031 6949 ft 207 kts 307°
2026-04-22 13:36 62.78914 10.73393 6990 ft 206 kts 306°
2026-04-22 13:36 62.79701 10.70724 6964 ft 208 kts 306°
2026-04-22 13:36 62.80482 10.68099 6976 ft 207 kts 307°
2026-04-22 13:36 62.81266 10.65452 6976 ft 207 kts 306°
2026-04-22 13:37 62.82052 10.62798 6969 ft 208 kts 307°
2026-04-22 13:37 62.82833 10.60171 6968 ft 205 kts 307°
2026-04-22 13:37 62.83613 10.57546 6976 ft 207 kts 307°
2026-04-22 13:37 62.84392 10.54896 6976 ft 207 kts 307°
2026-04-22 13:38 62.85170 10.52250 6968 ft 206 kts 307°
2026-04-22 13:38 62.86726 10.46966 6980 ft 212 kts 306°
2026-04-22 13:38 62.87522 10.44232 6975 ft 211 kts 306°
2026-04-22 13:39 62.88310 10.41558 6979 ft 209 kts 307°
2026-04-22 13:39 62.89110 10.38846 6978 ft 212 kts 306°
2026-04-22 13:39 62.89892 10.36140 6979 ft 209 kts 306°
2026-04-22 13:39 62.90678 10.33446 6974 ft 211 kts 306°
2026-04-22 13:40 62.91472 10.30741 6974 ft 210 kts 306°
2026-04-22 13:40 62.92251 10.28056 6970 ft 209 kts 306°
2026-04-22 13:40 62.93042 10.25348 6979 ft 212 kts 306°
2026-04-22 13:40 62.93832 10.22630 6973 ft 210 kts 306°
2026-04-22 13:41 62.94618 10.19916 6983 ft 211 kts 306°
2026-04-22 13:41 62.95409 10.17185 6980 ft 211 kts 306°
2026-04-22 13:41 62.96197 10.14472 6966 ft 213 kts 307°
2026-04-22 13:41 62.96982 10.11756 6981 ft 210 kts 306°
2026-04-22 13:42 62.97759 10.09045 7033 ft 210 kts 306°
2026-04-22 13:42 62.98558 10.06297 7011 ft 213 kts 306°
2026-04-22 13:42 62.99346 10.03527 6983 ft 211 kts 306°
2026-04-22 13:42 63.00140 10.00811 6983 ft 213 kts 306°
2026-04-22 13:43 63.00930 9.98066 6975 ft 211 kts 305°
2026-04-22 13:43 63.01704 9.95323 7005 ft 212 kts 306°
2026-04-22 13:43 63.02498 9.92575 6998 ft 211 kts 306°
2026-04-22 13:43 63.03284 9.89842 6994 ft 210 kts 306°
2026-04-22 13:44 63.04061 9.87113 6996 ft 211 kts 305°
2026-04-22 13:44 63.04845 9.84374 6986 ft 212 kts 306°
2026-04-22 13:44 63.05624 9.81656 6961 ft 209 kts 305°
2026-04-22 13:44 63.06407 9.78903 7003 ft 214 kts 304°
2026-04-22 13:45 63.07195 9.76129 7007 ft 214 kts 304°
2026-04-22 13:45 63.07987 9.73346 7005 ft 213 kts 304°
2026-04-22 13:45 63.08735 9.70714 6976 ft 191 kts 304°
2026-04-22 13:45 63.09403 9.68350 6966 ft 175 kts 304°
2026-04-22 13:46 63.10072 9.66051 7009 ft 181 kts 310°
2026-04-22 13:46 63.11015 9.64320 7019 ft 180 kts 329°
2026-04-22 13:46 63.12211 9.63370 6981 ft 190 kts 344°
2026-04-22 13:46 63.13574 9.63367 6609 ft 199 kts 357°
2026-04-22 13:47 63.14919 9.63580 6203 ft 189 kts 353°
2026-04-22 13:47 63.16197 9.63659 6047 ft 185 kts 353°
2026-04-22 13:47 63.17508 9.63813 6018 ft 190 kts 355°
2026-04-22 13:47 63.18828 9.63992 6014 ft 190 kts 354°
2026-04-22 13:48 63.20147 9.64117 6017 ft 191 kts 354°
2026-04-22 13:48 63.21479 9.64279 6023 ft 192 kts 355°
2026-04-22 13:48 63.22811 9.64433 6003 ft 191 kts 354°
2026-04-22 13:48 63.24136 9.64571 6011 ft 192 kts 354°
2026-04-22 13:49 63.25457 9.64731 6010 ft 189 kts 354°
2026-04-22 13:49 63.26780 9.64877 6007 ft 191 kts 354°
2026-04-22 13:49 63.28102 9.65033 6006 ft 189 kts 354°
2026-04-22 13:49 63.29426 9.65181 6001 ft 189 kts 354°
2026-04-22 13:50 63.30738 9.65334 6004 ft 189 kts 354°
2026-04-22 13:50 63.32050 9.65479 6028 ft 189 kts 354°
2026-04-22 13:50 63.33371 9.65634 6018 ft 189 kts 354°
2026-04-22 13:50 63.34695 9.65773 6009 ft 193 kts 354°
2026-04-22 13:51 63.36016 9.65939 6000 ft 188 kts 354°
2026-04-22 13:51 63.37320 9.66080 6005 ft 189 kts 353°
2026-04-22 13:51 63.38645 9.66236 6011 ft 192 kts 355°
2026-04-22 13:51 63.39976 9.66402 6017 ft 190 kts 354°
2026-04-22 13:52 63.41293 9.66527 6009 ft 188 kts 354°
2026-04-22 13:52 63.42629 9.66680 6002 ft 195 kts 354°
2026-04-22 13:52 63.43973 9.67056 5979 ft 199 kts
2026-04-22 13:52 63.45199 9.68747 5968 ft 218 kts 32°
2026-04-22 13:53 63.46273 9.71172 5975 ft 219 kts 35°
2026-04-22 13:53 63.47372 9.73499 5978 ft 217 kts 32°
2026-04-22 13:53 63.48472 9.75847 5982 ft 220 kts 35°
2026-04-22 13:53 63.49536 9.78190 5985 ft 199 kts 30°
2026-04-22 13:54 63.50675 9.79419 5917 ft 177 kts
2026-04-22 13:54 63.51894 9.79603 5452 ft 167 kts 346°
2026-04-22 13:54 63.52937 9.78934 4919 ft 149 kts 328°
2026-04-22 13:54 63.53855 9.77849 4413 ft 149 kts 326°
2026-04-22 13:55 63.54805 9.76910 3892 ft 150 kts 328°
2026-04-22 13:55 63.55746 9.75819 3342 ft 153 kts 325°
2026-04-22 13:55 63.56706 9.74797 2820 ft 152 kts 327°
2026-04-22 13:55 63.57652 9.73801 2536 ft 147 kts 326°
2026-04-22 13:56 63.58572 9.72747 2512 ft 151 kts 324°
2026-04-22 13:56 63.59512 9.71658 2387 ft 152 kts 326°
2026-04-22 13:56 63.60452 9.70566 2127 ft 150 kts 325°
2026-04-22 13:56 63.61451 9.69615 1876 ft 156 kts 332°
2026-04-22 13:57 63.62397 9.68700 1654 ft 144 kts 326°
2026-04-22 13:57 63.63285 9.67750 1420 ft 142 kts 331°
2026-04-22 13:57 63.64169 9.66879 1200 ft 133 kts 323°
2026-04-22 13:57 63.64962 9.65791 1025 ft 139 kts 323°
2026-04-22 13:58 63.65870 9.64807 785 ft 150 kts 326°
2026-04-22 13:58 63.66794 9.63786 604 ft 146 kts 325°
2026-04-22 13:58 63.67728 9.62735 329 ft 148 kts 328°
2026-04-22 13:58 63.68614 9.61809 126 ft 134 kts 325°
2026-04-22 13:59 63.69385 9.60972 31 ft 106 kts 328°
2026-04-22 13:59 63.69863 9.60442 30 ft 50 kts 335°
2026-04-22 13:59 63.70064 9.60215 28 ft 24 kts 332°
2026-04-22 13:59 63.70196 9.60067 32 ft 18 kts 332°
2026-04-22 14:00 63.70271 9.59990 30 ft 7 kts 347°
2026-04-22 14:00 63.70301 9.60014 30 ft 4 kts 48°
2026-04-22 14:00 63.70314 9.60057 30 ft 3 kts 62°
2026-04-22 14:00 63.70322 9.60098 31 ft 3 kts 65°
2026-04-22 14:01 63.70333 9.60150 29 ft 5 kts 64°
2026-04-22 14:01 63.70343 9.60194 29 ft 0 kts 65°
2026-04-22 14:03 63.70351 9.60232 28 ft 2 kts 65°
2026-04-22 14:03 63.70362 9.60304 30 ft 8 kts 82°
2026-04-22 14:03 63.70329 9.60413 27 ft 10 kts 154°
2026-04-22 14:03 63.70263 9.60485 25 ft 9 kts 155°
2026-04-22 14:04 63.70203 9.60550 27 ft 11 kts 154°
2026-04-22 14:04 63.70123 9.60636 28 ft 14 kts 154°
2026-04-22 14:04 63.70027 9.60741 29 ft 16 kts 153°
2026-04-22 14:04 63.69917 9.60859 30 ft 19 kts 157°
2026-04-22 14:05 63.69800 9.60989 30 ft 18 kts 153°
2026-04-22 14:05 63.69701 9.61100 30 ft 13 kts 152°
2026-04-22 14:05 63.69651 9.61268 30 ft 4 kts 82°
2026-04-22 14:06 63.69656 9.61334 30 ft 4 kts 81°
2026-04-22 14:06 63.69658 9.61390 30 ft 3 kts 91°
2026-04-22 14:06 63.69655 9.61446 31 ft 7 kts 96°
2026-04-22 14:06 63.69651 9.61565 32 ft 4 kts 95°
2026-04-22 14:07 63.69650 9.61577 32 ft 0 kts 95°